Check out our new BloomSky Weather System.

Active alerts

Houston, TX
  Details for Houston, TX Dense Fog Advisory


Thunder radar  blitzortung!


Rain radar more information rain snow radar


Visit our other weather sites:

Template documentation
and downloads

And another site



Weather Underground History page Text

Daily Summary for March 23, 2017 Units:  Metric    English   Both
« Previous Day
Next Day »
Daily Weekly Monthly Yearly Custom
  High: Low: Average:
Temperature: 30.1 °C 18.5 °C 22.4 °C
Dew Point: 20.3 °C 8.1 °C 17.1 °C
Humidity: 98 % 26 % 77 %
Wind Speed: 32.2 km/h 0 km/h 8.2 km/h
Wind Gust: 33.8 km/h - -
Wind:- - SE
Pressure: 1020.5 hPa 1016.1 hPa -
Precipitation: 0 mm    
Historical Graphs
 
 
Tabular Data for March 23, 2017
Time Temperature Dew Point Pressure Wind Wind Speed Wind Gust Humidity Rainfall Rate (Hourly)
00:00 20.8 °C 19.1 °C 1020.2 hPa SE 3.2 km/h 8 km/h 90 % 0 mm
00:05 20.8 °C 19.1 °C 1020.2 hPa SSE 1.6 km/h 6.4 km/h 90 % 0 mm
00:10 20.7 °C 19.2 °C 1020.2 hPa SSE 3.2 km/h 6.4 km/h 91 % 0 mm
00:16 20.7 °C 19.2 °C 1020.2 hPa SE 1.6 km/h 4.8 km/h 91 % 0 mm
00:21 20.6 °C 19.1 °C 1020.2 hPa SSE 3.2 km/h 4.8 km/h 91 % 0 mm
00:26 20.6 °C 19.1 °C 1019.9 hPa ESE 1.6 km/h 6.4 km/h 91 % 0 mm
00:31 20.4 °C 18.9 °C 1019.9 hPa Calm   6.4 km/h 91 % 0 mm
00:36 20.3 °C 18.8 °C 1019.9 hPa ESE 1.6 km/h 6.4 km/h 91 % 0 mm
00:41 20.3 °C 19 °C 1019.9 hPa ESE 3.2 km/h 4.8 km/h 92 % 0 mm
00:46 20.3 °C 19 °C 1019.9 hPa ESE 1.6 km/h 6.4 km/h 92 % 0 mm
00:51 20.2 °C 18.9 °C 1019.9 hPa SSE 3.2 km/h 6.4 km/h 92 % 0 mm
00:56 20.2 °C 18.9 °C 1019.9 hPa ESE 3.2 km/h 6.4 km/h 92 % 0 mm
01:01 20.2 °C 19 °C 1019.9 hPa SE 3.2 km/h 4.8 km/h 93 % 0 mm
01:06 20.2 °C 19 °C 1019.9 hPa ESE 3.2 km/h 8 km/h 93 % 0 mm
01:11 20.2 °C 19 °C 1019.9 hPa Calm   8 km/h 93 % 0 mm
01:16 20.1 °C 18.9 °C 1019.9 hPa South 3.2 km/h 8 km/h 93 % 0 mm
01:21 20.1 °C 18.9 °C 1019.9 hPa SE 1.6 km/h 8 km/h 93 % 0 mm
01:26 20.1 °C 19.1 °C 1019.9 hPa ESE 1.6 km/h 6.4 km/h 94 % 0 mm
01:31 19.9 °C 18.9 °C 1019.9 hPa ESE 3.2 km/h 6.4 km/h 94 % 0 mm
01:36 19.9 °C 18.9 °C 1019.9 hPa East 3.2 km/h 6.4 km/h 94 % 0 mm
01:41 19.9 °C 18.9 °C 1019.9 hPa ESE 1.6 km/h 6.4 km/h 94 % 0 mm
01:46 19.9 °C 18.9 °C 1019.9 hPa Calm   6.4 km/h 94 % 0 mm
01:51 19.8 °C 18.8 °C 1019.9 hPa SSE 1.6 km/h 6.4 km/h 94 % 0 mm
01:56 19.7 °C 18.7 °C 1019.5 hPa SE 4.8 km/h 6.4 km/h 94 % 0 mm
02:01 19.7 °C 18.9 °C 1019.5 hPa SE 1.6 km/h 6.4 km/h 95 % 0 mm
02:06 19.7 °C 18.9 °C 1019.5 hPa Calm   4.8 km/h 95 % 0 mm
02:11 19.7 °C 18.9 °C 1019.5 hPa Calm   4.8 km/h 95 % 0 mm
02:16 19.6 °C 18.8 °C 1019.5 hPa SSW 3.2 km/h 4.8 km/h 95 % 0 mm
02:21 19.5 °C 18.7 °C 1019.5 hPa Calm   3.2 km/h 95 % 0 mm
02:26 19.4 °C 18.6 °C 1019.5 hPa Calm   3.2 km/h 95 % 0 mm
02:31 19.3 °C 18.5 °C 1019.5 hPa Calm   3.2 km/h 95 % 0 mm
02:36 19.2 °C 18.4 °C 1019.5 hPa Calm   1.6 km/h 95 % 0 mm
02:41 19.2 °C 18.4 °C 1019.5 hPa Calm   1.6 km/h 95 % 0 mm
02:46 19.2 °C 18.4 °C 1019.5 hPa Calm   1.6 km/h 95 % 0 mm
02:51 19.2 °C 18.5 °C 1019.2 hPa ESE 1.6 km/h 1.6 km/h 96 % 0 mm
02:57 19.1 °C 18.4 °C 1019.2 hPa Calm   1.6 km/h 96 % 0 mm
03:02 19.1 °C 18.4 °C 1019.2 hPa Calm   3.2 km/h 96 % 0 mm
03:07 19.1 °C 18.4 °C 1019.2 hPa Calm   3.2 km/h 96 % 0 mm
03:12 19 °C 18.3 °C 1019.2 hPa ESE 1.6 km/h 3.2 km/h 96 % 0 mm
03:17 19 °C 18.3 °C 1019.2 hPa SE 1.6 km/h 3.2 km/h 96 % 0 mm
03:22 19 °C 18.3 °C 1019.2 hPa Calm   4.8 km/h 96 % 0 mm
03:28 18.9 °C 18.2 °C 1019.2 hPa ESE 1.6 km/h 4.8 km/h 96 % 0 mm
03:33 18.9 °C 18.2 °C 1018.8 hPa Calm   4.8 km/h 96 % 0 mm
03:38 18.8 °C 18.1 °C 1018.8 hPa Calm   1.6 km/h 96 % 0 mm
03:43 18.8 °C 18.1 °C 1018.8 hPa SE 1.6 km/h 3.2 km/h 96 % 0 mm
03:48 18.8 °C 18.3 °C 1018.8 hPa SE 1.6 km/h 4.8 km/h 97 % 0 mm
03:53 18.8 °C 18.3 °C 1018.8 hPa SE 1.6 km/h 4.8 km/h 97 % 0 mm
03:58 18.8 °C 18.3 °C 1018.8 hPa East 1.6 km/h 4.8 km/h 97 % 0 mm
04:03 18.9 °C 18.4 °C 1018.8 hPa SSE 1.6 km/h 4.8 km/h 97 % 0 mm
04:08 18.9 °C 18.4 °C 1018.8 hPa ESE 1.6 km/h 4.8 km/h 97 % 0 mm
04:13 19 °C 18.5 °C 1018.8 hPa ESE 1.6 km/h 4.8 km/h 97 % 0 mm
04:18 19 °C 18.5 °C 1018.8 hPa Calm   4.8 km/h 97 % 0 mm
04:23 19 °C 18.5 °C 1018.8 hPa ESE 3.2 km/h 4.8 km/h 97 % 0 mm
04:28 18.9 °C 18.4 °C 1018.8 hPa ESE 1.6 km/h 4.8 km/h 97 % 0 mm
04:33 18.9 °C 18.4 °C 1018.8 hPa SSE 1.6 km/h 4.8 km/h 97 % 0 mm
04:38 18.9 °C 18.4 °C 1018.8 hPa ESE 1.6 km/h 4.8 km/h 97 % 0 mm
04:43 18.8 °C 18.3 °C 1018.8 hPa ESE 1.6 km/h 3.2 km/h 97 % 0 mm
04:45 18.8 °C 18.3 °C 1018.8 hPa Calm   3.2 km/h 97 % 0 mm
04:50 18.8 °C 18.3 °C 1018.8 hPa ESE 1.6 km/h 3.2 km/h 97 % 0 mm
04:55 18.7 °C 18.2 °C 1018.8 hPa SE 1.6 km/h 3.2 km/h 97 % 0 mm
05:00 18.8 °C 18.3 °C 1018.8 hPa SE 4.8 km/h 4.8 km/h 97 % 0 mm
05:05 18.8 °C 18.3 °C 1018.8 hPa SE 1.6 km/h 4.8 km/h 97 % 0 mm
05:10 18.8 °C 18.3 °C 1018.8 hPa SE 3.2 km/h 4.8 km/h 97 % 0 mm
05:15 18.8 °C 18.3 °C 1018.8 hPa SE 3.2 km/h 4.8 km/h 97 % 0 mm
05:20 18.8 °C 18.3 °C 1018.8 hPa Calm   4.8 km/h 97 % 0 mm
05:25 18.7 °C 18.2 °C 1018.8 hPa Calm   4.8 km/h 97 % 0 mm
05:30 18.7 °C 18.2 °C 1018.8 hPa SE 1.6 km/h 4.8 km/h 97 % 0 mm
05:35 18.8 °C 18.3 °C 1018.8 hPa SE 1.6 km/h 6.4 km/h 97 % 0 mm
05:40 18.9 °C 18.4 °C 1018.8 hPa ESE 1.6 km/h 6.4 km/h 97 % 0 mm
05:45 18.9 °C 18.4 °C 1018.8 hPa SSE 1.6 km/h 6.4 km/h 97 % 0 mm
05:50 18.9 °C 18.4 °C 1018.8 hPa SSE 1.6 km/h 4.8 km/h 97 % 0 mm
05:55 18.9 °C 18.4 °C 1018.8 hPa Calm   4.8 km/h 97 % 0 mm
06:00 18.8 °C 18.3 °C 1018.8 hPa Calm   4.8 km/h 97 % 0 mm
06:05 18.8 °C 18.3 °C 1019.2 hPa SSE 3.2 km/h 4.8 km/h 97 % 0 mm
06:10 18.7 °C 18.2 °C 1019.2 hPa Calm   3.2 km/h 97 % 0 mm
06:15 18.7 °C 18.2 °C 1019.2 hPa Calm   3.2 km/h 97 % 0 mm
06:20 18.7 °C 18.2 °C 1019.2 hPa Calm   3.2 km/h 97 % 0 mm
06:26 18.7 °C 18.2 °C 1019.2 hPa Calm   3.2 km/h 97 % 0 mm
06:31 18.6 °C 18.1 °C 1019.2 hPa SE 1.6 km/h 3.2 km/h 97 % 0 mm
06:36 18.7 °C 18.4 °C 1019.2 hPa East 1.6 km/h 3.2 km/h 98 % 0 mm
06:41 18.7 °C 18.2 °C 1019.2 hPa ESE 1.6 km/h 3.2 km/h 97 % 0 mm
06:46 18.7 °C 18.2 °C 1019.2 hPa Calm   3.2 km/h 97 % 0 mm
06:51 18.7 °C 18.2 °C 1019.2 hPa East 1.6 km/h 3.2 km/h 97 % 0 mm
06:56 18.7 °C 18.2 °C 1019.2 hPa Calm   3.2 km/h 97 % 0 mm
07:01 18.6 °C 18.1 °C 1019.5 hPa SE 1.6 km/h 3.2 km/h 97 % 0 mm
07:06 18.6 °C 18.1 °C 1019.5 hPa Calm   3.2 km/h 97 % 0 mm
07:11 18.6 °C 18.1 °C 1019.5 hPa Calm   3.2 km/h 97 % 0 mm
07:16 18.5 °C 18 °C 1019.5 hPa Calm   3.2 km/h 97 % 0 mm
07:21 18.5 °C 18.2 °C 1019.5 hPa ESE 1.6 km/h 3.2 km/h 98 % 0 mm
07:26 18.5 °C 18 °C 1019.5 hPa Calm   3.2 km/h 97 % 0 mm
07:31 18.6 °C 18.3 °C 1019.9 hPa East 1.6 km/h 3.2 km/h 98 % 0 mm
07:36 18.6 °C 18.3 °C 1019.9 hPa Calm   3.2 km/h 98 % 0 mm
07:41 18.6 °C 18.3 °C 1019.9 hPa SE 1.6 km/h 3.2 km/h 98 % 0 mm
07:46 18.6 °C 18.3 °C 1019.9 hPa Calm   3.2 km/h 98 % 0 mm
07:51 18.7 °C 18.4 °C 1019.9 hPa SE 1.6 km/h 3.2 km/h 98 % 0 mm
07:56 18.7 °C 18.4 °C 1019.9 hPa Calm   3.2 km/h 98 % 0 mm
08:01 18.8 °C 18.5 °C 1019.9 hPa East 3.2 km/h 3.2 km/h 98 % 0 mm
08:06 18.9 °C 18.6 °C 1019.9 hPa SSE 1.6 km/h 3.2 km/h 98 % 0 mm
08:11 19 °C 18.7 °C 1019.9 hPa SE 1.6 km/h 3.2 km/h 98 % 0 mm
08:16 19.1 °C 18.8 °C 1019.9 hPa Calm   6.4 km/h 98 % 0 mm
08:21 19.3 °C 19 °C 1019.9 hPa SE 1.6 km/h 6.4 km/h 98 % 0 mm
08:26 19.6 °C 19.3 °C 1019.9 hPa South 4.8 km/h 6.4 km/h 98 % 0 mm
08:31 19.8 °C 19.5 °C 1019.9 hPa ESE 3.2 km/h 6.4 km/h 98 % 0 mm
08:36 19.9 °C 19.4 °C 1020.2 hPa SE 3.2 km/h 9.7 km/h 97 % 0 mm
08:41 20.1 °C 19.6 °C 1020.2 hPa SSE 4.8 km/h 11.3 km/h 97 % 0 mm
08:46 20.3 °C 19.6 °C 1020.2 hPa SE 4.8 km/h 11.3 km/h 96 % 0 mm
08:56 20.9 °C 20.1 °C 1020.2 hPa SSE 8 km/h 14.5 km/h 95 % 0 mm
09:01 21.2 °C 20 °C 1020.2 hPa SE 8 km/h 14.5 km/h 93 % 0 mm
09:06 21.3 °C 19.9 °C 1020.2 hPa SSE 9.7 km/h 11.3 km/h 92 % 0 mm
09:11 21.6 °C 20.1 °C 1020.2 hPa SSE 4.8 km/h 12.9 km/h 91 % 0 mm
09:16 21.9 °C 20.2 °C 1020.5 hPa SSE 8 km/h 14.5 km/h 90 % 0 mm
09:21 22 °C 19.9 °C 1020.5 hPa SSE 8 km/h 14.5 km/h 88 % 0 mm
09:26 22.2 °C 20.1 °C 1020.5 hPa SSW 6.4 km/h 17.7 km/h 88 % 0 mm
09:31 22.3 °C 19.8 °C 1020.5 hPa South 12.9 km/h 17.7 km/h 86 % 0 mm
09:36 22.3 °C 19.7 °C 1020.5 hPa South 11.3 km/h 17.7 km/h 85 % 0 mm
09:41 22.5 °C 19.9 °C 1020.5 hPa SSW 12.9 km/h 17.7 km/h 85 % 0 mm
09:46 22.6 °C 19.9 °C 1020.5 hPa ESE 4.8 km/h 17.7 km/h 85 % 0 mm
09:51 22.9 °C 20.1 °C 1020.5 hPa SSW 8 km/h 20.9 km/h 84 % 0 mm
09:56 23.2 °C 20.3 °C 1020.5 hPa SE 11.3 km/h 20.9 km/h 84 % 0 mm
10:01 23.2 °C 19.4 °C 1020.5 hPa SSW 9.7 km/h 20.9 km/h 79 % 0 mm
10:06 23.2 °C 19.4 °C 1020.5 hPa SSW 11.3 km/h 17.7 km/h 79 % 0 mm
10:11 23.3 °C 19.5 °C 1020.5 hPa South 11.3 km/h 17.7 km/h 79 % 0 mm
10:17 23.7 °C 19.6 °C 1020.5 hPa South 11.3 km/h 17.7 km/h 78 % 0 mm
10:22 23.8 °C 19.5 °C 1020.5 hPa SSE 4.8 km/h 20.9 km/h 77 % 0 mm
10:27 23.7 °C 19 °C 1020.5 hPa SE 11.3 km/h 20.9 km/h 75 % 0 mm
10:32 23.7 °C 19.2 °C 1020.5 hPa SSW 12.9 km/h 20.9 km/h 76 % 0 mm
10:34 30.1 °C 10.1 °C 1017.2 hPa ESE 30.6 km/h 30.6 km/h 29 % 0 mm
10:35 30.1 °C 9.6 °C 1017.2 hPa SSE 32.2 km/h 32.2 km/h 28 % 0 mm
10:36 30 °C 9.5 °C 1017.2 hPa SE 27.4 km/h 27.4 km/h 28 % 0 mm
10:37 23.8 °C 19.1 °C 1020.5 hPa South 4.8 km/h 17.7 km/h 75 % 0 mm
10:42 24.1 °C 19.6 °C 1020.5 hPa South 12.9 km/h 25.7 km/h 76 % 0 mm
10:47 24.3 °C 19.4 °C 1020.5 hPa SSE 16.1 km/h 25.7 km/h 74 % 0 mm
10:52 24.5 °C 19.8 °C 1020.5 hPa SSE 3.2 km/h 25.7 km/h 75 % 0 mm
10:57 24.8 °C 19.4 °C 1020.5 hPa ESE 14.5 km/h 24.1 km/h 72 % 0 mm
11:02 24.9 °C 19.3 °C 1020.5 hPa SSE 11.3 km/h 19.3 km/h 71 % 0 mm
11:07 25 °C 19.4 °C 1020.5 hPa SSE 8 km/h 20.9 km/h 71 % 0 mm
11:12 25.1 °C 19 °C 1020.5 hPa SSE 8 km/h 27.4 km/h 69 % 0 mm
11:17 25.2 °C 19.3 °C 1020.5 hPa South 11.3 km/h 27.4 km/h 70 % 0 mm
11:22 25.4 °C 18.8 °C 1020.5 hPa South 16.1 km/h 27.4 km/h 67 % 0 mm
11:27 25.4 °C 18.8 °C 1020.5 hPa East 11.3 km/h 24.1 km/h 67 % 0 mm
11:32 25.6 °C 18.3 °C 1020.5 hPa SSW 9.7 km/h 24.1 km/h 64 % 0 mm
11:37 25.8 °C 19 °C 1020.5 hPa SE 17.7 km/h 24.1 km/h 66 % 0 mm
11:42 25.8 °C 18.7 °C 1020.2 hPa SSE 12.9 km/h 20.9 km/h 65 % 0 mm
11:47 25.9 °C 18.6 °C 1020.2 hPa ESE 16.1 km/h 20.9 km/h 64 % 0 mm
11:52 26 °C 18.7 °C 1020.2 hPa SSE 6.4 km/h 20.9 km/h 64 % 0 mm
11:57 26.2 °C 18.6 °C 1020.2 hPa SSE 14.5 km/h 20.9 km/h 63 % 0 mm
12:02 26.3 °C 18.2 °C 1020.2 hPa ESE 19.3 km/h 25.7 km/h 61 % 0 mm
12:07 26.3 °C 17.9 °C 1020.2 hPa South 12.9 km/h 25.7 km/h 60 % 0 mm
12:12 26.6 °C 17.7 °C 1019.9 hPa SE 12.9 km/h 25.7 km/h 58 % 0 mm
12:17 26.7 °C 17.5 °C 1019.9 hPa South 19.3 km/h 27.4 km/h 57 % 0 mm
12:22 26.8 °C 17.3 °C 1019.9 hPa SE 11.3 km/h 27.4 km/h 56 % 0 mm
15:36 29.9 °C 9.4 °C 1017.2 hPa South 20.9 km/h 20.9 km/h 28 % 0 mm
15:41 29.8 °C 9.3 °C 1017.2 hPa SE 17.7 km/h 29 km/h 28 % 0 mm
15:47 29.7 °C 8.1 °C 1017.2 hPa SE 19.3 km/h 30.6 km/h 26 % 0 mm
15:52 29.6 °C 10.2 °C 1017.2 hPa SSE 14.5 km/h 32.2 km/h 30 % 0 mm
15:57 29.7 °C 9.8 °C 1016.8 hPa SE 11.3 km/h 32.2 km/h 29 % 0 mm
16:02 29.8 °C 9.3 °C 1016.8 hPa SSE 16.1 km/h 32.2 km/h 28 % 0 mm
16:07 29.8 °C 9.3 °C 1016.8 hPa South 22.5 km/h 30.6 km/h 28 % 0 mm
16:12 29.6 °C 10.7 °C 1016.8 hPa SSW 16.1 km/h 30.6 km/h 31 % 0 mm
16:17 29.6 °C 9.2 °C 1016.8 hPa SE 11.3 km/h 30.6 km/h 28 % 0 mm
16:22 29.8 °C 9.3 °C 1016.8 hPa South 16.1 km/h 30.6 km/h 28 % 0 mm
16:27 29.6 °C 10.7 °C 1016.8 hPa SSE 16.1 km/h 32.2 km/h 31 % 0 mm
16:32 29.6 °C 11.6 °C 1016.5 hPa SSE 14.5 km/h 32.2 km/h 33 % 0 mm
16:37 29.5 °C 11.5 °C 1016.5 hPa SSE 12.9 km/h 32.2 km/h 33 % 0 mm
16:42 29.6 °C 12.5 °C 1016.5 hPa South 9.7 km/h 27.4 km/h 35 % 0 mm
16:47 29.5 °C 12.4 °C 1016.5 hPa SE 16.1 km/h 27.4 km/h 35 % 0 mm
16:52 29.2 °C 12.2 °C 1016.5 hPa SE 17.7 km/h 30.6 km/h 35 % 0 mm
16:53 29.2 °C 12.6 °C 1016.1 hPa SW 12.9 km/h 30.6 km/h 36 % 0 mm
16:58 29.1 °C 12.9 °C 1016.1 hPa SSE 9.7 km/h 30.6 km/h 37 % 0 mm
17:03 28.9 °C 12.3 °C 1016.5 hPa South 12.9 km/h 30.6 km/h 36 % 0 mm
17:08 28.7 °C 12.6 °C 1016.1 hPa South 22.5 km/h 29 km/h 37 % 0 mm
17:13 28.6 °C 13.3 °C 1016.1 hPa ESE 12.9 km/h 29 km/h 39 % 0 mm
17:18 28.5 °C 13.6 °C 1016.1 hPa SE 19.3 km/h 29 km/h 40 % 0 mm
17:23 28.5 °C 13.6 °C 1016.1 hPa SSE 14.5 km/h 29 km/h 40 % 0 mm
17:28 28.2 °C 13.3 °C 1016.5 hPa SE 22.5 km/h 29 km/h 40 % 0 mm
17:33 28 °C 13.1 °C 1016.5 hPa SSE 20.9 km/h 29 km/h 40 % 0 mm
17:38 28 °C 13.5 °C 1016.5 hPa SE 8 km/h 29 km/h 41 % 0 mm
17:43 27.8 °C 13.3 °C 1016.5 hPa SE 16.1 km/h 29 km/h 41 % 0 mm
17:48 27.7 °C 12.9 °C 1016.5 hPa SE 24.1 km/h 27.4 km/h 40 % 0 mm
17:53 27.4 °C 12.6 °C 1016.1 hPa SE 19.3 km/h 33.8 km/h 40 % 0 mm
17:58 27.3 °C 13.3 °C 1016.1 hPa ESE 14.5 km/h 33.8 km/h 42 % 0 mm
18:03 27.1 °C 12.7 °C 1016.1 hPa South 17.7 km/h 33.8 km/h 41 % 0 mm
18:08 26.9 °C 12.5 °C 1016.1 hPa SSE 12.9 km/h 33.8 km/h 41 % 0 mm
18:13 26.8 °C 12.4 °C 1016.1 hPa South 19.3 km/h 32.2 km/h 41 % 0 mm
18:18 26.7 °C 11.6 °C 1016.1 hPa SSE 12.9 km/h 32.2 km/h 39 % 0 mm
18:23 26.6 °C 11.5 °C 1016.1 hPa ESE 12.9 km/h 33.8 km/h 39 % 0 mm
18:28 26.6 °C 13 °C 1016.5 hPa SE 9.7 km/h 33.8 km/h 43 % 0 mm
18:33 26.4 °C 13.2 °C 1016.5 hPa SSE 19.3 km/h 33.8 km/h 44 % 0 mm
18:38 26.2 °C 13.3 °C 1016.5 hPa SE 12.9 km/h 32.2 km/h 45 % 0 mm
18:40 26.2 °C 13.3 °C 1016.5 hPa SW 9.7 km/h 24.1 km/h 45 % 0 mm
18:45 26.1 °C 13.6 °C 1016.5 hPa SSE 20.9 km/h 22.5 km/h 46 % 0 mm
18:50 25.9 °C 14 °C 1016.5 hPa ESE 12.9 km/h 24.1 km/h 48 % 0 mm
18:55 25.7 °C 14.5 °C 1016.5 hPa South 9.7 km/h 29 km/h 50 % 0 mm
19:05 25.2 °C 14.3 °C 1016.5 hPa ESE 16.1 km/h 30.6 km/h 51 % 0 mm
19:11 24.8 °C 14.3 °C 1016.5 hPa SSE 19.3 km/h 30.6 km/h 52 % 0 mm
19:16 24.6 °C 14.4 °C 1016.5 hPa SE 17.7 km/h 30.6 km/h 53 % 0 mm
19:21 24.3 °C 14.4 °C 1016.5 hPa ESE 6.4 km/h 29 km/h 54 % 0 mm
19:26 24.1 °C 14.2 °C 1016.5 hPa SE 14.5 km/h 32.2 km/h 54 % 0 mm
19:31 23.9 °C 14.6 °C 1016.5 hPa ESE 4.8 km/h 32.2 km/h 56 % 0 mm
19:36 23.7 °C 14.7 °C 1016.5 hPa SE 19.3 km/h 32.2 km/h 57 % 0 mm
19:41 23.4 °C 14.9 °C 1016.5 hPa SE 12.9 km/h 29 km/h 59 % 0 mm
19:46 23.3 °C 15.4 °C 1016.1 hPa SE 11.3 km/h 29 km/h 61 % 0 mm
19:51 23.2 °C 15.5 °C 1016.1 hPa ESE 24.1 km/h 27.4 km/h 62 % 0 mm
20:01 23 °C 15.6 °C 1016.1 hPa East 8 km/h 25.7 km/h 63 % 0 mm
20:06 22.9 °C 16 °C 1016.1 hPa ESE 19.3 km/h 25.7 km/h 65 % 0 mm
20:11 22.8 °C 16.1 °C 1016.1 hPa SE 12.9 km/h 25.7 km/h 66 % 0 mm
20:16 22.8 °C 16.4 °C 1016.5 hPa SSE 11.3 km/h 25.7 km/h 67 % 0 mm
20:21 22.7 °C 16.5 °C 1016.1 hPa ESE 4.8 km/h 24.1 km/h 68 % 0 mm
20:26 22.6 °C 16.4 °C 1016.1 hPa ESE 14.5 km/h 27.4 km/h 68 % 0 mm
20:31 22.5 °C 16.3 °C 1016.5 hPa SE 11.3 km/h 27.4 km/h 68 % 0 mm
20:36 22.4 °C 16.4 °C 1016.5 hPa ESE 14.5 km/h 30.6 km/h 69 % 0 mm
20:41 22.4 °C 16.7 °C 1016.5 hPa SSE 19.3 km/h 30.6 km/h 70 % 0 mm
20:46 22.3 °C 16.6 °C 1016.8 hPa ESE 11.3 km/h 30.6 km/h 70 % 0 mm
20:51 22.3 °C 16.6 °C 1016.5 hPa SE 16.1 km/h 29 km/h 70 % 0 mm
20:56 22.2 °C 16.7 °C 1016.5 hPa SE 8 km/h 24.1 km/h 71 % 0 mm
21:01 22.2 °C 16.7 °C 1016.5 hPa SSE 11.3 km/h 24.1 km/h 71 % 0 mm
21:06 22.1 °C 16.8 °C 1016.8 hPa ESE 8 km/h 24.1 km/h 72 % 0 mm
21:11 22.1 °C 16.8 °C 1016.8 hPa ESE 12.9 km/h 24.1 km/h 72 % 0 mm
21:16 22.1 °C 17 °C 1016.8 hPa SE 12.9 km/h 20.9 km/h 73 % 0 mm
21:21 22 °C 16.9 °C 1016.8 hPa SSE 17.7 km/h 20.9 km/h 73 % 0 mm
21:26 21.9 °C 17.1 °C 1016.8 hPa ESE 14.5 km/h 24.1 km/h 74 % 0 mm
21:31 21.9 °C 17.1 °C 1016.8 hPa SE 4.8 km/h 24.1 km/h 74 % 0 mm
21:36 21.9 °C 17.1 °C 1016.8 hPa ESE 9.7 km/h 24.1 km/h 74 % 0 mm
21:41 21.9 °C 17.3 °C 1016.8 hPa SE 9.7 km/h 22.5 km/h 75 % 0 mm
21:46 21.9 °C 17.5 °C 1016.8 hPa ESE 12.9 km/h 22.5 km/h 76 % 0 mm
21:51 21.8 °C 17.6 °C 1016.8 hPa SSE 4.8 km/h 22.5 km/h 77 % 0 mm
21:56 21.7 °C 17.7 °C 1016.8 hPa ESE 9.7 km/h 22.5 km/h 78 % 0 mm
22:01 21.7 °C 17.9 °C 1016.8 hPa SSE 4.8 km/h 22.5 km/h 79 % 0 mm
22:06 21.6 °C 17.8 °C 1017.2 hPa SE 6.4 km/h 22.5 km/h 79 % 0 mm
22:11 21.6 °C 18 °C 1017.2 hPa SE 11.3 km/h 22.5 km/h 80 % 0 mm
22:16 21.6 °C 18 °C 1017.2 hPa SSE 17.7 km/h 22.5 km/h 80 % 0 mm
22:21 21.6 °C 18 °C 1017.2 hPa SE 11.3 km/h 22.5 km/h 80 % 0 mm
22:26 21.6 °C 18.2 °C 1016.8 hPa SE 16.1 km/h 22.5 km/h 81 % 0 mm
22:31 21.6 °C 18.2 °C 1017.2 hPa SSE 8 km/h 22.5 km/h 81 % 0 mm
22:36 21.6 °C 18.4 °C 1016.8 hPa ESE 6.4 km/h 27.4 km/h 82 % 0 mm
22:41 21.6 °C 18.4 °C 1016.8 hPa ESE 20.9 km/h 27.4 km/h 82 % 0 mm
22:45 21.6 °C 18.4 °C 1016.8 hPa WSW 11.3 km/h 27.4 km/h 82 % 0 mm
22:50 21.6 °C 18.4 °C 1016.8 hPa SE 11.3 km/h 27.4 km/h 82 % 0 mm
22:55 21.5 °C 18.5 °C 1016.8 hPa ESE 14.5 km/h 27.4 km/h 83 % 0 mm
23:00 21.5 °C 18.5 °C 1016.8 hPa ESE 19.3 km/h 25.7 km/h 83 % 0 mm
23:05 21.4 °C 18.4 °C 1016.8 hPa SSW 3.2 km/h 25.7 km/h 83 % 0 mm
23:10 21.4 °C 18.6 °C 1016.8 hPa ESE 12.9 km/h 25.7 km/h 84 % 0 mm
23:15 21.4 °C 18.6 °C 1016.8 hPa SSE 8 km/h 22.5 km/h 84 % 0 mm
23:20 21.3 °C 18.5 °C 1016.8 hPa SE 8 km/h 22.5 km/h 84 % 0 mm
23:25 21.3 °C 18.5 °C 1016.8 hPa SSE 14.5 km/h 20.9 km/h 84 % 0 mm
23:30 21.3 °C 18.5 °C 1016.5 hPa SE 14.5 km/h 20.9 km/h 84 % 0 mm
23:35 21.2 °C 18.4 °C 1016.5 hPa SE 9.7 km/h 20.9 km/h 84 % 0 mm
23:40 21.2 °C 18.4 °C 1016.5 hPa ESE 11.3 km/h 25.7 km/h 84 % 0 mm
23:45 21.2 °C 18.4 °C 1016.1 hPa SE 12.9 km/h 25.7 km/h 84 % 0 mm
23:50 21.1 °C 18.5 °C 1016.1 hPa SSE 11.3 km/h 25.7 km/h 85 % 0 mm
23:55 21.1 °C 18.5 °C 1016.1 hPa ESE 17.7 km/h 25.7 km/h 85 % 0 mm
Spring, Texas: Villages of Bridgestone
Compliments of Weather Underground - 2.5 mb

Script developed by  Jim McMurry - jmcmurry@mwt.net Adapted for the template by  Wim van der Kuil - Leuven-Template.eu

You find our weather info also at:

UK Metoffice

WeatherCloud

Weather Underground

Mid-South Weather Network

AWEKAS

Citizen Weather Observer Program (CWOP)

HAMweather, WeatherForYou, PWS Weather

Equipment we use:

Weather-station
Davis Vantage Vue

Weather-program
Meteohub

Weather-server
Debian 7.9 x86 (Guest)

Provider
DreamHost

Davis Vantage Vue

Meteohub

Debian 7.9 x86 (Guest)

DreamHost